Location: Borea
(45.6167°N, 23.0167°E)
Time: 02:36:48
(UTC+00:00)

OPS 8068 - Pass Details

Date: 26 February 2024
Orbit: 631 x 963 km, 98.3° (Epoch: 13 April)

Event Time Altitude Azimuth Distance (km) Brightness Sun altitude
Rises 16:51:02 0° 7° (N) 3,324 ? -8.0°
Reaches altitude 10° 16:53:23 10° 2° (N) 2,438 ? -8.4°
Maximum altitude 16:58:32 45° 291° (WNW) 1,175 ? -9.3°
Drops below altitude 10° 17:04:04 10° 220° (SW) 2,611 ? -10.3°
Sets 17:06:39 0° 215° (SW) 3,582 ? -10.7°
